This demonstration page uses our WeatherBlox Daily Observations layout. Learn more.

Hourly Observations for June 24, 2017

Temp ( °F °C ) Dew Point ( °F °C ) Humidity (%) Winds ( mph kmh ) Pressure ( in mb ) Visibility ( mi km ) Precip ( " mm )
12:54 am 00:54 Clear 54 12.2 50 10 87 87 N 3 6 30.14 1021 10 16.0934 0 0
1:54 am 01:54 Clear 53 11.7 48 8.9 83 83 NNW 5 7 30.14 1021 10 16.0934 0 0
2:54 am 02:54 Clear 52 11.1 49 9.4 89 89 NW 3 6 30.16 1021 10 16.0934 0 0
3:54 am 03:54 Clear 52 11.1 48 8.9 86 86 Calm 30.16 1021 10 16.0934 0 0
4:54 am 04:54 Clear 50 10 46 7.8 86 86 Calm 30.16 1021 10 16.0934 0 0
5:54 am 05:54 Clear 50 10 44 6.7 80 80 Calm 30.17 1022 10 16.0934 0 0
6:54 am 06:54 Sunny 50 10 46 7.8 86 86 N 5 7 30.19 1022 10 16.0934 0 0
7:54 am 07:54 Sunny 57 13.9 48 8.9 72 72 N 7 11 30.18 1022 10 16.0934 0 0
8:54 am 08:54 Sunny 65 18.3 48 8.9 54 54 Calm 30.19 1022 10 16.0934 0 0
9:54 am 09:54 Sunny 70 21.1 46 7.8 42 42 W 7 11 30.19 1023 10 16.0934 0 0
10:54 am 10:54 Sunny 74 23.3 39 3.9 28 28 W 10 17 30.2 1023 10 16.0934 0 0
11:54 am 11:54 Sunny 76 24.4 37 2.8 24 24 NW 9 15 30.2 1023 10 16.0934 0 0
12:54 pm 12:54 Sunny 78 25.6 37 2.8 23 23 W 17 28 30.2 1023 10 16.0934 0 0
1:54 pm 13:54 Mostly Sunny 79 26.1 38 3.3 23 23 NW 8 13 30.19 1022 10 16.0934 0 0
2:54 pm 14:54 Mostly Cloudy 78 25.6 39 3.9 25 25 W 13 20 30.18 1022 10 16.0934 0 0
3:54 pm 15:54 Mostly Cloudy 80 26.7 40 4.4 24 24 W 15 24 30.16 1021 10 16.0934 0 0
4:54 pm 16:54 Cloudy 79 26.1 41 5 26 26 WNW 10 17 30.14 1021 10 16.0934 0 0
5:54 pm 17:54 Sunny 81 27.2 40 4.4 23 23 W 15 24 30.12 1020 10 16.0934 0 0
6:54 pm 18:54 Mostly Cloudy 78 25.6 39 3.9 25 25 WNW 10 17 30.13 1020 10 16.0934 0 0
7:54 pm 19:54 Cloudy 76 24.4 45 7.2 33 33 W 7 11 30.14 1021 10 16.0934 0 0
8:54 pm 20:54 Mostly Sunny 74 23.3 42 5.6 32 32 W 7 11 30.14 1021 10 16.0934 0 0
9:54 pm 21:54 Mostly Clear 71 21.7 42 5.6 35 35 W 6 9 30.15 1021 10 16.0934 0 0
10:54 pm 22:54 Clear 61 16.1 45 7.2 56 56 N 3 6 30.18 1022 10 16.0934 0 0
11:54 pm 23:54 Clear 64 17.8 43 6.1 46 46 NNW 6 9 30.2 1023 10 16.0934 0 0

Powered by AerisWeather